Location: ?p Thanh B�nh
(16.5833°N, 107.5333°E)
Time: 04:17:20
(UTC+00:00)

Cosmos 2360 - Pass Details

Date: 29 October 2020
Orbit: 848 x 854 km, 70.8° (Epoch: 29 November)

Event Time Altitude Azimuth Distance (km) Brightness Sun altitude
Rises 21:48:24 0° 344° (NNW) 3,405 7.1 -14.5°
Reaches altitude 10° 21:50:51 10° 345° (NNW) 2,468 6.4 -13.9°
Maximum altitude 21:56:32 85° 73° (ENE) 853 4.3 -12.6°
Drops below altitude 10° 22:02:12 10° 162° (SSE) 2,462 7.0 -11.3°
Sets 22:04:38 0° 163° (SSE) 3,396 7.8 -10.7°
